Location: Unspecified
(0.0000°N, 0.0000°E)
Time: 05:10:02
(UTC+00:00)

Hubble Space Telescope - Pass Details

Date: 10 July 2024
Orbit: 509 x 513 km, 28.5° (Epoch: 24 July)

Event Time Altitude Azimuth Distance (km) Brightness Sun altitude
Exits shadow 03:51:49 15° 19° (NNE) 1,426 3.4 -30.7°
Maximum altitude 03:52:19 15° 28° (NNE) 1,412 3.4 -30.5°
Drops below altitude 10° 03:54:42 10° 65° (ENE) 1,717 4.3 -30.0°
Sets 03:57:41 0° 89° (E) 2,603 5.2 -29.3°
